CZ-6A DEB, 56607

Orbit data source: Space-Track

CZ-6A DEB, 56607 is space debris in SSO originally from a launch on Fri, 11 Nov 2022 UTC launched from the Taiyaun Space Center, China (TSC). Debris objects in space refer to the collection of defunct objects orbiting the Earth. Examples of debris include non-operational satellites, rocket bodies, and fragments generated from explosions, collisions, or faulty payload assembly.

Loading next visibility...
Identifier
56607, 2022-151AEF
Orbit
SSO
Country
Flag of CNCN / PRC
Related business
Manufacturer
SAST
Mission
Spacecraft
Bus & Motor
Unknown
Mass
Unknown
Launch date (UTC)
2022-11-11 (4 years ago)
Launch vehicle
Unknown
Launch site
Taiyaun Space Center, China (TSC)
Object type
Payload
Rocket body
Debris
Shape & HBR
Unknown shape, 0.1 m
Radar Cross Section
Medium (>0.1 m² and <1 m²)

Expand to show TLE details & history
Last TLE update: 3 days ago

TLE from 3 days ago
0 CZ-6A DEB
1 56607U 22151AEF 26262.03019034  .00000405  00000-0  16119-3 0  9993
2 56607  98.6862 287.9072 0115383 179.3368 180.7988 14.30398177177524
Epoch: 2026-09-19T00:43Z
TLE epoch observation values (Epoch: 2026-09-19T00:43:28.445Z)
Latitude
-0.00003°
Longitude
-80.9059°
Altitude
876.052 km
Speed
7.371 km/s
True Right ascension
19h 11m 37s
True Declination
0° 00' 00"
Sunlit
Object was in daylight at epoch
Visualization orbit readout
Latitude
Unknown
Longitude
Unknown
Altitude
Unknown
Speed
Unknown
Apparent Right ascension
Unknown
Apparent Declination
Unknown
Sunlit
N/A
Visualization observer readout
Local Sidereal Time
15:12:12
Azimuth
Unknown
Elevation
Unknown
Doppler factor
Unknown
Orbital elements
Apogee altitude
870.223 km
Perigee altitude
704.863 km
Semi-major axis
7,165.68 km
Eccentricity
0.01154
Inclination
98.6862°
RAAN
287.9072°
Arg. of periapsis
179.3368°
True anomaly
180.78063°
Mean anomaly
180.7988°
Eccentric anomaly
180.78969°
Mean motion
3.57814 °/min
Orbital period
100.61 mins
BSTAR
0.00016119
Loading maneuver chart data...
Computing Atmospheric mass density...

Documentation

Showing up to 5 results
|